CW6726 Weather Reports


Display with metric or nautical units.
time (UTC)temp
F
wind
direction
speed
MPH
gust
MPH
rain 1hr
in
rain 24hr
in
rain mn
in
humidity
%
barometer
mb
20260508023105 46 146 0.0 0.0 0.00 0.00 0.00 90 1012.7
20260508022605 46 146 0.0 0.0 0.00 0.00 0.00 90 1012.7
20260508021105 46 146 0.0 0.0 0.00 0.00 0.00 90 1012.7
20260508020605 46 146 0.0 0.0 0.00 0.00 0.00 90 1012.7
20260508020105 46 146 0.0 0.0 0.00 0.00 0.00 90 1012.7
20260508015605 46 146 0.0 0.0 0.00 0.00 0.00 90 1012.7
20260508014605 46 146 0.0 0.0 0.00 0.00 0.00 90 1012.7
20260508014105 46 146 0.0 0.0 0.00 0.00 0.00 90 1012.7
20260508013106 46 146 0.0 0.0 0.00 0.00 0.00 90 1012.7
20260508012104 46 146 0.0 0.0 0.00 0.00 0.00 90 1012.8
20260508011604 46 146 0.0 0.0 0.00 0.00 0.00 90 1012.8
20260508010605 46 146 0.0 0.0 0.00 0.00 0.00 89 1012.9
20260508010106 46 146 0.0 0.0 0.00 0.00 0.00 89 1012.9
20260508005605 46 146 0.0 0.0 0.00 0.00 0.00 89 1012.9
20260508004104 46 146 0.0 0.0 0.00 0.00 0.00 89 1012.9
20260508003605 46 146 0.0 0.0 0.00 0.00 0.00 89 1012.9
20260508002605 46 146 0.0 0.0 0.00 0.00 0.00 89 1013.0
20260508002105 46 146 0.0 0.0 0.00 0.00 0.00 89 1013.0
20260508000105 46 146 0.0 0.0 0.00 0.00 0.00 89 1013.0
20260507235605 45 146 0.0 0.0 0.00 0.00 0.00 88 1013.1
20260507234105 45 146 0.0 0.0 0.00 0.00 0.00 88 1013.2
20260507232605 45 146 0.0 0.0 0.00 0.00 0.00 88 1013.3
20260507231108 45 146 0.0 0.0 0.00 0.00 0.00 88 1013.3
20260507230605 45 146 0.0 0.0 0.00 0.00 0.00 88 1013.3
20260507225105 45 146 0.0 1.0 0.00 0.00 0.00 87 1013.4
20260507224605 45 146 0.0 0.0 0.00 0.00 0.00 87 1013.3
20260507224105 45 146 0.0 0.0 0.00 0.00 0.00 87 1013.3
20260507222605 44 146 0.0 0.0 0.00 0.00 0.00 86 1013.4
20260507221605 44 146 0.0 0.0 0.00 0.00 0.00 86 1013.4
20260507220605 44 146 0.0 0.0 0.00 0.00 0.00 86 1013.4
20260507214605 45 146 0.0 0.0 0.00 0.00 0.00 85 1013.5
20260507214105 45 146 0.0 0.0 0.00 0.00 0.00 85 1013.6
20260507212605 46 146 0.0 0.0 0.00 0.00 0.00 85 1013.5
20260507212104 46 146 0.0 1.0 0.00 0.00 0.00 84 1013.6
20260507211104 45 146 0.0 1.0 0.00 0.00 0.00 84 1013.5
20260507210106 45 146 0.0 1.0 0.00 0.00 0.00 83 1013.3
20260507205605 45 146 0.0 0.0 0.00 0.00 0.00 83 1013.3
20260507204605 45 146 0.0 0.0 0.00 0.00 0.00 82 1013.2
20260507203605 45 146 0.0 0.0 0.00 0.00 0.00 81 1013.4
20260507203105 46 146 0.0 0.0 0.00 0.00 0.00 81 1013.4
20260507202605 46 146 0.0 0.0 0.00 0.00 0.00 80 1013.4
20260507194105 51 146 0.0 0.0 0.00 0.00 0.00 74 1012.8
20260507193105 52 146 0.0 0.0 0.00 0.00 0.00 72 1012.7
20260507192606 53 146 0.0 0.0 0.00 0.00 0.00 71 1012.7
20260507192104 54 146 0.0 0.0 0.00 0.00 0.00 70 1012.6
20260507191106 55 146 0.0 0.0 0.00 0.00 0.00 69 1012.5
20260507190105 55 146 0.0 0.0 0.00 0.00 0.00 67 1012.4
20260507184604 56 146 1.0 5.0 0.00 0.00 0.00 64 1012.4
20260507184105 57 144 0.0 1.0 0.00 0.00 0.00 64 1012.4
20260507183105 57 144 0.0 0.0 0.00 0.00 0.00 64 1012.4
20260507181105 58 147 0.0 2.0 0.00 0.00 0.00 64 1012.3
20260507175605 58 148 1.0 5.0 0.00 0.00 0.00 63 1012.3
20260507175104 58 146 0.0 3.0 0.00 0.00 0.00 62 1012.2
20260507174606 58 147 0.0 2.0 0.00 0.00 0.00 63 1012.2
20260507173605 59 151 0.0 3.0 0.00 0.00 0.00 61 1012.2
20260507173104 59 150 0.0 5.0 0.00 0.00 0.00 62 1012.1
20260507172604 59 116 0.0 2.0 0.00 0.00 0.00 62 1012.1
20260507172105 58 116 0.0 2.0 0.00 0.00 0.00 62 1012.2
20260507171605 58 116 0.0 3.0 0.00 0.00 0.00 62 1012.2
20260507165105 59 198 0.0 0.0 0.00 0.00 0.00 62 1012.3
20260507164105 59 198 0.0 3.0 0.00 0.00 0.00 63 1012.3
20260507163604 59 198 0.0 1.0 0.00 0.00 0.00 62 1012.3
20260507163105 59 198 0.0 0.0 0.00 0.00 0.00 62 1012.3
20260507162104 60 161 0.0 3.0 0.00 0.00 0.00 61 1012.3
20260507161605 60 223 0.0 5.0 0.00 0.00 0.00 61 1012.3
20260507161105 60 223 2.0 6.0 0.00 0.00 0.00 61 1012.3
20260507160605 60 221 1.0 6.0 0.00 0.00 0.00 61 1012.3
20260507160105 60 186 1.0 6.0 0.00 0.00 0.00 59 1012.3
20260507155604 60 132 0.0 3.0 0.00 0.00 0.00 59 1012.3
20260507155105 61 131 0.0 5.0 0.00 0.00 0.00 58 1012.4
20260507154105 61 186 2.0 5.0 0.00 0.00 0.00 59 1012.4
20260507151605 59 205 1.0 3.0 0.00 0.00 0.00 63 1012.6
20260507144604 58 209 1.0 6.0 0.00 0.00 0.00 64 1012.6
20260507144105 58 209 5.0 7.0 0.00 0.00 0.00 64 1012.6
20260507143105 58 207 0.0 0.0 0.00 0.00 0.00 65 1012.7
20260507142105 58 207 0.0 2.0 0.00 0.00 0.00 65 1012.8
20260507141605 58 207 0.0 1.0 0.00 0.00 0.00 65 1012.8
20260507135604 58 207 1.0 6.0 0.00 0.00 0.00 64 1012.8
20260507135105 58 209 0.0 1.0 0.00 0.00 0.00 64 1012.7
20260507134105 59 209 1.0 3.0 0.00 0.00 0.00 64 1012.7
20260507133605 59 209 1.0 5.0 0.00 0.00 0.00 64 1012.7
20260507133105 59 209 0.0 0.0 0.00 0.00 0.00 64 1012.7
20260507132105 60 209 0.0 2.0 0.00 0.00 0.00 62 1012.7
20260507131105 60 209 0.0 3.0 0.00 0.00 0.00 62 1012.8
20260507130605 60 209 0.0 7.0 0.00 0.00 0.00 61 1012.8
20260507130105 61 196 1.0 8.0 0.00 0.00 0.00 59 1012.8
20260507123605 59 193 0.0 0.0 0.00 0.00 0.00 61 1012.9
20260507123105 59 193 0.0 1.0 0.00 0.00 0.00 62 1013.0
20260507121104 59 169 1.0 3.0 0.00 0.00 0.00 64 1013.0
20260507120105 59 175 1.0 3.0 0.00 0.00 0.00 63 1013.0
20260507115105 59 139 2.0 5.0 0.00 0.00 0.00 62 1012.9
20260507113605 59 194 0.0 3.0 0.00 0.00 0.00 61 1013.0
20260507112605 59 194 0.0 3.0 0.00 0.00 0.00 61 1013.0
20260507112105 59 194 0.0 0.0 0.00 0.00 0.00 60 1013.0
20260507111105 59 194 0.0 0.0 0.00 0.00 0.00 60 1013.0
20260507110605 59 194 0.0 0.0 0.00 0.00 0.00 61 1013.1
20260507110106 59 194 0.0 3.0 0.00 0.00 0.00 59 1013.1
20260507105105 61 194 0.0 1.0 0.00 0.00 0.00 53 1013.1
20260507104606 61 194 1.0 3.0 0.00 0.00 0.00 52 1013.1
20260507104104 62 194 0.0 2.0 0.00 0.00 0.00 54 1013.1
20260507103605 63 192 0.0 6.0 0.00 0.00 0.00 54 1013.1
20260507102605 63 182 1.0 3.0 0.00 0.00 0.00 53 1013.2
20260507101605 61 181 0.0 5.0 0.00 0.00 0.00 58 1013.2
20260507095604 60 46 0.0 2.0 0.00 0.00 0.00 63 1013.2
20260507095105 59 47 0.0 5.0 0.00 0.00 0.00 64 1013.2
20260507094604 58 157 0.0 0.0 0.00 0.00 0.00 68 1013.2
20260507094106 58 157 0.0 1.0 0.00 0.00 0.00 65 1013.2
20260507091105 56 202 2.0 6.0 0.00 0.00 0.00 70 1013.3
20260507090105 56 273 1.0 3.0 0.00 0.00 0.00 72 1013.4
20260507084605 55 19 0.0 3.0 0.00 0.00 0.00 76 1013.3
20260507083605 54 19 0.0 1.0 0.00 0.00 0.00 79 1013.3
20260507083105 54 19 0.0 3.0 0.00 0.00 0.00 80 1013.2
20260507082105 53 22 1.0 5.0 0.00 0.00 0.00 85 1013.1
20260507081605 52 22 0.0 3.0 0.00 0.00 0.00 86 1013.2
20260507080605 51 28 1.0 5.0 0.00 0.00 0.00 88 1013.2
20260507080105 50 28 0.0 3.0 0.00 0.00 0.00 89 1013.2
20260507075605 50 28 2.0 3.0 0.00 0.00 0.00 89 1013.2
20260507075104 49 32 0.0 3.0 0.00 0.00 0.00 90 1013.2
20260507074105 48 32 1.0 3.0 0.00 0.00 0.00 90 1013.2
20260507073605 47 32 1.0 3.0 0.00 0.00 0.00 90 1013.2
20260507073105 47 32 1.0 3.0 0.00 0.00 0.00 91 1013.2
20260507072605 47 32 1.0 3.0 0.00 0.00 0.00 91 1013.2
20260507072104 47 32 0.0 3.0 0.00 0.00 0.00 91 1013.2
20260507071104 46 32 0.0 3.0 0.00 0.00 0.00 92 1013.2
20260507070605 45 32 1.0 3.0 0.00 0.00 0.00 92 1013.2
20260507070105 45 32 0.0 1.0 0.00 0.00 0.00 92 1013.1
20260507065104 44 32 0.0 0.0 0.00 0.00 0.00 92 1013.2
20260507061104 39 32 0.0 0.0 0.00 0.00 0.00 92 1013.1
20260507060105 38 32 0.0 0.0 0.00 0.00 0.00 91 1012.9
20260507055105 38 32 0.0 0.0 0.00 0.00 0.00 91 1012.9
20260507054604 38 32 0.0 0.0 0.00 0.00 0.00 91 1013.0
20260507053105 37 32 0.0 0.0 0.00 0.00 0.00 91 1012.9
20260507052604 37 32 0.0 0.0 0.00 0.00 0.00 91 1012.8
20260507052105 37 32 0.0 0.0 0.00 0.00 0.00 91 1012.8
20260507051604 37 32 0.0 0.0 0.00 0.00 0.00 91 1012.8
20260507050105 37 32 0.0 0.0 0.00 0.00 0.00 91 1012.7
20260507045605 37 32 0.0 0.0 0.00 0.00 0.00 91 1012.7
20260507044605 37 32 0.0 0.0 0.00 0.00 0.00 91 1012.7
20260507042105 37 32 0.0 0.0 0.00 0.00 0.00 90 1012.7
20260507040107 37 32 0.0 0.0 0.00 0.00 0.00 90 1012.7
20260507035605 37 32 0.0 0.0 0.00 0.00 0.00 90 1012.7
20260507035105 37 32 0.0 0.0 0.00 0.00 0.00 90 1012.7
20260507034605 37 32 0.0 0.0 0.00 0.00 0.00 90 1012.7
20260507032605 36 32 0.0 0.0 0.00 0.00 0.00 90 1012.7
20260507031604 36 32 0.0 0.0 0.00 0.00 0.00 90 1012.7
20260507031105 36 32 0.0 0.0 0.00 0.00 0.00 90 1012.7
20260507025105 36 32 0.0 0.0 0.00 0.00 0.00 89 1012.7